Regional Weather Roundup
Issued by NWS

Home | Current Version | Previous Version | Text Only | Print | Product List | Glossary On
Versions: 1 2 3 4 5 6 7 8 9 10 11 12 13 14 15 16 17 18 19 20 21 22 23 24 25 26 27 28 29 30 31 32 33 34 35 36 37 38 39 40 41 42 43 44 45 46 47 48 49 50
155
ASUS46 KSTO 060615
RWRCA

NORTHERN AND CENTRAL CA REGIONAL WEATHER ROUNDUP
NATIONAL WEATHER SERVICE SACRAMENTO CA
1000 PM PST MON DEC 05 2016

NOTE: FAIR INDICATES FEW OR NO CLOUDS BELOW 12,000 FEET WITH NO
SIGNIFICANT WEATHER AND/OR OBSTRUCTIONS TO VISIBILITY.

CAZ001-003-060700-
NORTHWEST AREA

CITY           SKY/WX    TMP DP  RH WIND       PRES   REMARKS
CRESCENT CITY  LGT RAIN  45  41  86 S10       30.12F
UKIAH          PTCLDY    37  33  85 SW3       30.09R
$$

CAZ006-505>513-060700-
BAY AREA

CITY           SKY/WX    TMP DP  RH WIND       PRES   REMARKS
SANTA ROSA     CLOUDY    41  36  82 CALM      30.05R
SAN RAFAEL     N/A       48  MM  MM MISG
NAPA           CLOUDY    44  39  82 CALM      30.05R
CONCORD        MOCLDY    47  41  80 CALM      30.05R
OAKLAND CITY   N/A       52  MM  MM MISG
OAKLAND        MOCLDY    52  48  86 W5        30.05R
SAN FRAN CITY  N/A       50  MM  70 MISG
SAN FRAN ARPT  MOCLDY    51  42  71 W9        30.05R
LIVERMORE      MOCLDY    46  43  89 CALM      30.03R
HAYWARD        MOCLDY    50  43  77 CALM      30.04S
REDWOOD CITY   N/A       46  MM  92 MISG
MOFFETT ARPT   MOCLDY    49  46  90 CALM      30.06R
SAN JOSE ARPT  MOCLDY    50  45  83 W3        30.05R
$$
CAZ034-037-514>518-060700-
CENTRAL COAST

CITY           SKY/WX    TMP DP  RH WIND       PRES   REMARKS
WATSONVILLE    CLEAR     47  46  97 NW5       30.04S
SALINAS        PTCLDY    48  44  86 CALM      30.03S
MONTEREY       CLOUDY    47  45  93 CALM      30.04S
SAN LUIS OBISP CLEAR     48  43  82 CALM      29.99S
SANTA MARIA    CLEAR     50  50 100 NW9       29.99R
$$
CAZ015-016-060700-
NORTHERN SACRAMENTO VALLEY

CITY           SKY/WX    TMP DP  RH WIND       PRES   REMARKS
REDDING        CLEAR     37  31  78 CALM      30.05R
RED BLUFF      CLEAR     40  27  59 N3        30.06S
OROVILLE       CLEAR     39  36  89 E3        30.06R
$$
CAZ016>018-060700-
SOUTHERN SACRAMENTO VALLEY

CITY           SKY/WX    TMP DP  RH WIND       PRES   REMARKS
AUBURN         PTCLDY    36  36 100 CALM      30.02S
BEALE AFB      PTCLDY    37  37  99 E3        30.03S
LINCOLN          N/A     37  36  93 E5        30.03S WCI  34
MARYSVILLE     PTCLDY    38  37  97 CALM      30.05S FOG
PLACERVILLE    CLOUDY    41  37  87 CALM      30.01S
SAC INTL ARPT  CLOUDY    45  44  97 CALM      30.04S
MATHER AIRPORT CLOUDY    45  43  93 E3        30.04S FOG
DOWNTOWN SAC   N/A       47  MM  MM MISG
SAC EXEC ARPT  CLOUDY    45  44  97 CALM      30.04S
VACAVILLE      CLOUDY    43  42  97 CALM      30.05S
TRAVIS AFB     MOCLDY    42  41  97 CALM      30.02S FOG
$$
CAZ019>021-060700-
SAN JOAQUIN VALLEY

CITY           SKY/WX    TMP DP  RH WIND       PRES   REMARKS
STOCKTON       MOCLDY    43  42  97 CALM      30.03S FOG
MODESTO        CLOUDY    44  41  89 CALM      30.04R FOG
MERCED         CLOUDY    43  41  93 CALM      30.03F FOG
LEMOORE        MOCLDY    44  41  89 CALM      30.04F FOG
FRESNO         MOCLDY    44  42  93 W3        30.04S FOG
HANFORD        MOCLDY    43  43 100 CALM      30.05S FOG
PORTERVILLE    PTCLDY    39  37  92 SE7       30.05S FOG     WCI  34
BAKERSFIELD    PTCLDY    47  38  71 S3        30.04S HAZE
$$
CAZ011-012-071-060700-
NORTHERN MOUNTAINS

CITY           SKY/WX    TMP DP  RH WIND       PRES   REMARKS
YREKA          CLOUDY    33  26  75 SW8       30.02S WCI  26
ALTURAS        CLEAR     18  15  88 W3        29.97S
$$
CAZ011-012-071-060700-
SIERRA NEVADA MTNS

CITY           SKY/WX    TMP DP  RH WIND       PRES   REMARKS
BLUE CANYON    CLOUDY    35  25  66 SE6       29.98F WCI  30
TRUCKEE        CLOUDY    27   7  43 SE3       29.95F
TAHOE VLY ARPT FAIR      34  -5  18 SW9       29.95S WCI  27
MAMMOTH LAKES  FAIR      41   2  19 SW17G26   29.94F
$$




USA.gov is the U.S. government's official web portal to all federal, state and local government web resources and services.